Temperature
9 9 9 8 8 8 8 8 8 8 8 8 8 8 8 8 8 8 8 8 8 8 9 8 8 8 7 7 7 7 7 7 8 8 8 8 8 8 8 8 8 9 9
9 9 8 8 8 8 8 8 7 7 7 7 7 7 7 7 7 8 8 8 8 8 8 8 8 7 7 7 7 7 7 7 7 7 7 7 7 7 7 8 8 8 8
9 8 8 8 8 8 7 7 7 7 7 7 7 7 7 7 7 8 8 8 8 8 8 8 8 7 7 6 6 6 6 6 6 7 7 7 7 7 7 7 7 7 7
8 8 8 8 8 7 7 7 7 7 7 7 7 7 7 7 8 8 8 8 8 8 8 8 8 7 7 6 6 6 6 6 6 6 6 6 7 7 7 7 7 7 7
8 8 8 8 8 7 7 7 7 7 6 6 6 7 7 7 8 8 8 8 8 8 8 8 7 7 7 7 6 6 6 6 6 6 6 6 6 6 7 7 7 7 7
8 8 8 8 7 7 7 7 7 7 6 6 6 7 7 7 8 8 8 8 7 7 7 7 7 6 6 6 6 5 5 5 5 5 5 5 5 6 6 6 7 7 7
8 8 8 8 7 7 7 7 7 7 7 6 6 6 7 8 8 7 7 7 7 7 6 6 6 6 6 5 5 5 5 4 4 4 4 4 4 5 5 5 6 6 7
9 8 8 8 7 7 7 7 6 6 6 6 5 5 4 5 5 5 6 6 6 6 6 5 5 5 5 5 5 5 4 4 4 4 4 4 4 4 4 4 5 5 6
8 8 8 7 7 7 7 6 6 6 6 6 5 4 3 3 3 4 4 5 4 4 4 4 4 4 4 4 4 4 4 4 3 3 3 3 4 4 4 4 4 5 5
8 7 7 7 7 6 6 6 6 6 5 5 5 4 4 3 2 2 3 3 3 3 4 4 4 4 4 4 3 3 3 3 3 3 3 3 3 3 4 4 4 4 4
7 7 7 7 6 6 6 6 6 5 5 5 4 4 3 3 2 1 1 2 2 3 2 2 3 3 3 3 3 2 2 2 2 2 2 2 2 3 3 3 4 4 4
7 7 6 6 6 6 6 5 5 5 5 4 4 3 3 2 2 1 0 0 0 1 1 1 2 2 2 2 1 1 0 0 0 0 1 1 1 2 2 3 3 3 3
7 7 6 6 6 6 5 5 5 5 4 4 3 3 2 2 1 1 -0 -1 -1 -1 -1 -0 1 1 1 0 -0 -1 -1 -1 -1 -1 -0 -0 0 1 1 2 2 2 2
7 6 6 6 5 5 5 5 4 4 4 3 3 2 2 1 1 0 -1 -2 -2 -2 -2 -2 -1 -1 -1 -1 -2 -2 -2 -2 -2 -2 -1 -1 -1 -0 -0 0 1 1 1
6 6 5 5 5 5 5 4 4 4 3 3 2 2 1 1 0 -0 -1 -2 -3 -4 -3 -3 -3 -2 -2 -3 -3 -3 -3 -3 -3 -3 -2 -2 -2 -1 -1 -1 -0 -0 0
6 5 5 5 5 5 4 4 3 3 2 2 1 1 0 0 -1 -1 -2 -2 -3 -4 -5 -4 -4 -4 -4 -4 -4 -4 -3 -3 -3 -3 -3 -3 -3 -2 -2 -2 -1 -1 -1
5 5 5 5 4 4 4 3 3 2 1 1 1 0 -0 -1 -2 -2 -3 -3 -4 -4 -5 -5 -4 -4 -4 -4 -4 -4 -4 -4 -3 -3 -3 -3 -3 -3 -2 -2 -2 -2 -1
5 4 4 4 4 3 3 2 2 1 1 0 -0 -1 -1 -2 -2 -3 -3 -4 -4 -5 -5 -5 -5 -5 -5 -4 -4 -4 -4 -4 -4 -4 -3 -3 -3 -3 -3 -3 -2 -2 -2
4 4 4 3 3 2 2 1 1 0 -0 -1 -1 -2 -2 -3 -3 -3 -4 -4 -5 -5 -5 -5 -5 -5 -5 -5 -4 -4 -4 -4 -4 -4 -4 -4 -3 -3 -3 -3 -3 -3 -2
4 3 3 2 2 2 1 1 0 -0 -1 -2 -2 -3 -3 -3 -4 -4 -5 -5 -5 -5 -5 -5 -5 -5 -5 -5 -5 -5 -5 -4 -4 -4 -4 -4 -4 -4 -3 -3 -3 -3 -3
3 2 2 2 1 1 0 -0 -1 -2 -2 -2 -3 -3 -3 -4 -4 -5 -5 -5 -5 -5 -5 -5 -5 -5 -5 -5 -5 -5 -5 -5 -5 -4 -4 -4 -4 -4 -3 -3 -3 -3 -3
2 2 1 1 1 0 -0 -1 -2 -2 -3 -3 -3 -4 -4 -4 -5 -5 -5 -5 -5 -5 -5 -5 -5 -5 -5 -5 -5 -5 -5 -5 -5 -5 -5 -4 -4 -4 -4 -3 -3 -3 -3
2 1 1 0 0 -0 -1 -1 -2 -3 -3 -3 -4 -4 -5 -5 -5 -5 -5 -5 -5 -5 -5 -5 -5 -5 -5 -5 -5 -5 -5 -5 -5 -5 -5 -5 -4 -4 -4 -4 -4 -4 -4
1 1 0 -0 -0 -1 -1 -2 -3 -3 -4 -4 -4 -5 -5 -5 -5 -6 -6 -6 -6 -5 -5 -5 -5 -5 -5 -5 -5 -5 -4 -4 -4 -4 -5 -5 -4 -4 -4 -4 -4 -4 -4
0 0 -0 -1 -1 -1 -2 -2 -3 -4 -4 -5 -5 -5 -6 -6 -6 -6 -6 -6 -6 -6 -5 -5 -5 -5 -5 -5 -5 -5 -5 -5 -5 -5 -4 -5 -5 -5 -4 -4 -4 -4 -4
-0 -1 -1 -1 -2 -2 -2 -3 -4 -5 -5 -5 -5 -6 -6 -6 -6 -6 -6 -6 -6 -6 -6 -6 -5 -5 -5 -5 -5 -5 -5 -5 -5 -5 -5 -5 -5 -5 -5 -5 -4 -4 -4
Wind_Speed
8 8 8 9 10 11 10 10 10 11 11 11 11 11 12 14 16 17 17 18 20 21 22 22 22 22 22 22 22 22 22 22 23 23 23 23 22 22 22 21 21 20 20
10 8 7 8 9 10 11 11 10 9 8 8 8 9 10 12 14 16 18 19 21 23 24 24 24 24 23 23 23 23 23 24 24 25 25 25 25 25 25 24 24 23 23
11 9 6 6 8 9 8 7 7 6 5 5 5 7 9 11 12 15 18 18 20 21 23 24 25 25 24 24 24 24 24 24 25 25 26 27 27 27 27 27 27 26 26
11 9 6 5 7 6 4 3 3 3 4 4 5 5 7 10 12 15 17 18 18 18 20 23 24 25 24 24 24 24 24 24 25 25 26 27 28 28 29 30 29 29 29
7 6 4 4 4 2 2 2 2 2 4 5 5 6 5 6 9 13 13 16 17 18 18 20 22 23 24 24 24 24 24 24 25 25 26 26 27 28 29 30 31 31 31
3 3 3 2 2 1 1 2 3 2 3 4 5 6 6 7 7 7 9 12 14 16 16 17 18 19 21 23 24 24 25 25 25 25 25 26 26 27 28 30 31 32 33
1 1 1 1 1 1 2 2 2 3 3 2 3 5 6 6 6 6 6 6 9 13 14 14 15 16 17 21 23 25 26 27 27 26 26 26 26 27 28 29 30 31 32
1 2 1 1 0 1 2 3 2 2 3 1 1 4 5 5 4 4 5 5 6 8 8 11 13 15 16 17 20 25 27 28 28 28 28 28 27 27 28 28 29 30 31
1 1 2 1 0 0 2 3 2 2 3 3 2 2 3 5 5 5 5 5 5 5 5 11 14 17 19 18 19 22 25 27 29 29 30 29 29 29 29 29 29 29 30
1 0 1 1 0 1 2 3 2 2 3 4 3 3 5 5 4 6 4 4 7 8 8 8 11 16 19 19 20 24 27 28 29 30 30 31 31 31 30 30 29 29 29
3 2 0 0 1 2 3 4 4 3 3 4 4 4 4 4 6 7 9 7 5 6 7 7 9 14 18 20 20 22 27 28 28 29 30 31 31 31 31 30 30 29 28
2 3 2 2 3 3 4 4 4 5 4 5 5 4 4 5 5 6 9 11 11 7 7 7 8 10 17 18 20 24 26 27 29 29 30 31 31 32 32 31 30 29 28
2 3 2 3 3 5 6 6 4 5 5 6 6 6 6 7 6 7 9 13 13 8 6 6 7 10 15 15 17 23 25 27 28 29 30 31 31 31 31 31 30 29 29
3 3 4 5 6 7 7 5 4 6 5 6 7 7 6 6 6 6 6 10 15 10 6 7 5 7 12 15 18 25 22 27 29 30 30 30 31 31 31 30 30 30 29
2 4 4 5 6 7 7 5 5 7 6 6 7 8 6 6 6 6 6 6 8 16 15 6 5 5 10 14 20 20 19 25 29 29 30 30 30 30 30 30 30 30 29
3 4 5 5 6 6 6 6 6 7 7 7 7 8 8 7 6 6 6 6 7 11 17 7 7 7 9 15 22 22 20 28 30 30 30 30 30 30 30 30 30 30 29
3 5 6 6 7 8 7 7 8 8 9 9 9 9 9 9 7 7 7 7 8 9 17 16 8 8 9 11 13 17 20 19 20 28 29 29 30 30 30 29 29 29 29
4 5 6 7 8 8 8 8 9 9 9 10 10 10 11 10 9 8 8 9 9 10 13 20 14 9 10 10 12 12 13 16 14 24 28 28 29 29 29 29 28 28 27
6 6 6 8 8 9 9 9 9 10 10 10 11 11 11 10 11 10 9 10 10 12 11 15 17 12 9 9 10 11 13 11 14 19 23 24 25 26 26 27 27 26 26
7 8 8 8 9 9 9 10 10 10 10 11 11 11 11 11 12 11 11 11 11 12 12 14 15 13 10 9 8 9 10 8 10 12 16 19 23 25 26 26 26 25 24
8 8 9 9 9 9 9 10 9 10 10 10 10 10 11 14 18 16 14 11 10 11 12 13 14 14 11 8 9 8 12 10 10 10 10 11 11 10 12 19 22 23 23
8 8 9 10 10 10 17 21 17 10 9 9 10 10 11 14 18 23 26 26 22 16 13 14 14 15 14 12 10 10 12 13 11 5 7 9 7 9 9 7 18 23 22
8 9 10 10 11 13 21 23 23 14 10 9 10 10 11 12 19 11 19 24 23 26 26 19 18 17 16 14 13 15 14 14 14 7 7 11 8 11 9 12 22 22 22
8 9 10 11 11 13 22 23 24 14 9 10 10 11 12 12 13 15 14 13 13 15 19 16 14 16 16 16 15 16 16 14 13 11 9 11 9 9 10 8 19 21 21
9 9 9 10 11 13 21 23 24 10 9 10 10 11 12 12 21 26 18 14 15 14 19 24 25 24 26 27 21 12 10 11 12 8 6 6 6 6 6 7 11 17 18
9 9 10 9 11 12 19 22 23 9 9 10 9 10 18 20 25 27 17 14 17 14 13 15 16 18 16 17 21 12 9 11 10 8 5 5 5 4 4 4 4 4 6
Wind_Direction
207 211 218 226 234 240 245 250 254 259 263 269 271 266 263 263 264 266 268 273 279 284 287 288 288 288 288 288 287 285 282 278 275 273 271 268 267 265 264 263 262 262 261
212 211 220 228 236 240 243 245 247 249 255 262 270 272 270 272 272 273 274 276 279 284 286 287 288 289 289 289 289 288 287 284 281 277 274 270 268 265 264 262 260 259 259
217 217 222 234 244 246 246 248 254 254 260 266 272 281 281 281 281 281 281 279 279 282 285 287 288 289 289 290 290 290 289 288 287 284 281 276 272 268 265 263 260 258 256
220 219 223 237 251 256 258 259 260 274 275 278 282 284 285 286 283 282 282 280 279 279 282 286 288 289 289 291 292 292 292 291 290 288 285 282 279 274 269 265 262 259 256
220 216 222 240 254 263 280 283 279 265 283 287 286 282 277 273 275 280 279 281 281 279 279 284 287 289 289 290 292 293 293 293 291 289 288 286 283 280 276 271 266 262 259
216 210 216 241 257 276 308 311 296 285 272 281 293 290 280 273 272 271 277 285 287 286 285 284 286 288 291 292 293 293 294 294 293 291 289 288 287 285 282 278 274 268 263
192 187 219 277 303 277 279 288 293 300 295 298 318 310 295 286 283 276 277 283 288 292 295 294 293 290 291 295 296 296 296 296 295 293 291 288 287 286 285 283 280 276 270
175 169 173 202 290 304 311 309 299 298 293 311 303 324 324 325 329 294 282 276 278 295 303 308 309 301 295 292 293 297 297 296 295 293 290 288 286 285 284 284 283 280 277
200 179 178 175 204 216 282 290 279 256 282 297 191 219 291 289 302 286 282 275 289 294 293 298 296 295 295 293 291 295 297 297 295 292 289 287 284 282 281 281 280 280 279
16 87 159 154 198 257 280 284 271 244 245 280 281 228 228 245 277 301 292 280 279 279 276 281 284 285 286 285 287 292 296 296 294 292 289 287 285 282 280 279 278 279 279
10 4 358 1 309 293 284 287 291 271 238 248 257 259 261 255 233 257 288 289 283 259 260 262 270 275 277 277 278 284 292 293 293 292 291 289 288 285 282 280 279 279 280
347 351 338 315 301 292 284 282 278 277 264 260 260 253 253 260 264 259 279 293 292 283 263 255 259 266 271 272 275 285 290 292 292 291 290 290 288 287 284 281 280 280 280
308 303 313 300 293 289 289 288 281 280 273 269 266 263 257 255 260 269 283 295 295 290 265 254 253 263 272 272 273 285 290 290 290 290 290 289 288 287 285 282 280 279 279
259 277 295 297 297 299 298 294 284 279 275 271 273 270 268 266 262 262 271 295 303 298 276 263 259 257 272 276 278 288 288 288 289 287 287 286 286 286 285 284 281 278 277
268 290 301 302 303 302 297 293 282 282 281 273 270 270 266 263 260 258 257 261 283 301 300 272 271 263 275 279 283 286 278 283 287 286 286 286 285 284 284 283 282 279 276
290 303 304 301 299 297 294 289 284 279 279 276 270 269 268 266 260 256 253 254 252 278 291 287 276 271 275 286 289 289 286 288 289 289 288 285 284 283 282 281 280 279 277
291 295 295 296 296 294 292 289 284 283 280 280 279 276 272 270 266 262 257 257 259 265 285 293 284 274 267 270 278 278 279 280 281 284 285 284 283 282 281 280 279 278 278
281 282 287 291 291 291 290 287 286 287 282 281 280 279 277 278 269 266 263 262 266 265 276 289 293 285 272 270 272 272 280 280 276 281 284 285 284 283 282 281 280 279 278
283 285 285 286 286 287 286 284 280 280 277 275 275 274 275 274 275 272 267 268 270 275 272 280 288 287 280 274 275 276 274 274 276 280 283 285 285 284 284 283 282 281 280
278 281 281 279 280 281 281 281 279 276 273 271 269 268 268 266 269 273 275 270 271 273 274 278 285 288 284 271 268 276 281 269 270 274 277 279 280 283 284 285 286 286 285
274 275 279 281 281 282 277 277 274 269 268 270 269 265 265 273 279 284 286 280 277 278 282 284 286 288 286 281 275 272 280 279 271 263 265 267 270 269 274 279 283 284 284
276 276 276 277 280 284 295 303 303 289 278 274 276 272 272 279 286 292 294 295 292 288 286 284 286 284 285 281 278 277 281 283 283 245 246 262 253 261 262 256 272 278 278
275 277 277 276 276 281 296 303 305 304 288 278 276 277 284 285 294 284 288 290 288 287 286 284 282 282 282 280 279 279 276 274 274 263 256 271 260 262 261 266 274 276 277
274 276 278 278 278 285 300 306 308 304 285 276 272 273 277 278 278 286 280 277 273 275 277 278 271 271 272 273 267 268 273 275 272 265 250 267 265 261 264 259 271 273 275
278 277 277 278 280 288 301 307 307 294 284 277 273 272 278 278 286 295 295 288 285 281 284 284 283 283 283 285 285 282 278 280 281 273 228 248 263 264 262 261 265 271 273
279 283 283 280 279 282 296 305 307 293 287 284 277 272 284 290 294 297 294 289 290 289 284 285 285 285 284 283 285 278 275 278 280 278 227 227 251 253 267 256 261 270 276
Height
1561 1561 1561 1561 1561 1561 1560 1559 1559 1558 1557 1556 1554 1553 1552 1551 1549 1548 1547 1546 1545 1544 1542 1541 1540 1540 1539 1538 1537 1536 1535 1535 1534 1533 1532 1532 1531 1530 1530 1529 1528 1528 1528
1559 1559 1559 1559 1559 1559 1558 1557 1556 1555 1554 1552 1551 1550 1548 1547 1545 1544 1543 1542 1541 1539 1538 1536 1535 1534 1533 1533 1532 1531 1530 1529 1529 1528 1527 1527 1526 1526 1525 1525 1524 1524 1523
1558 1558 1557 1557 1557 1556 1555 1554 1553 1552 1550 1549 1548 1546 1545 1543 1541 1539 1538 1536 1535 1534 1532 1531 1530 1529 1528 1527 1526 1525 1524 1523 1522 1522 1521 1521 1520 1520 1520 1519 1519 1519 1518
1556 1555 1555 1555 1554 1553 1552 1551 1550 1548 1547 1545 1543 1541 1540 1538 1536 1534 1533 1532 1530 1528 1527 1526 1524 1523 1522 1521 1520 1519 1518 1517 1516 1515 1514 1513 1513 1513 1513 1513 1513 1512 1512
1553 1553 1552 1552 1551 1550 1549 1548 1546 1544 1542 1541 1538 1536 1534 1532 1531 1529 1528 1526 1525 1523 1522 1521 1520 1519 1517 1516 1515 1514 1512 1511 1509 1508 1507 1506 1505 1505 1505 1505 1505 1505 1505
1551 1550 1549 1549 1548 1546 1545 1544 1542 1540 1539 1536 1533 1531 1529 1527 1525 1524 1523 1522 1521 1520 1518 1517 1515 1514 1513 1511 1509 1508 1506 1505 1503 1502 1500 1499 1498 1497 1496 1496 1496 1496 1497
1547 1547 1546 1545 1544 1543 1542 1540 1538 1537 1535 1533 1529 1525 1523 1521 1519 1518 1518 1518 1517 1515 1514 1512 1510 1508 1507 1505 1503 1501 1499 1498 1496 1495 1493 1491 1490 1489 1488 1487 1487 1487 1487
1544 1544 1543 1542 1541 1540 1538 1537 1535 1533 1532 1530 1527 1522 1517 1514 1512 1513 1512 1511 1510 1509 1508 1506 1504 1502 1500 1497 1495 1493 1491 1489 1488 1487 1485 1484 1483 1481 1480 1479 1478 1478 1478
1542 1541 1540 1539 1538 1537 1536 1534 1532 1530 1528 1527 1525 1523 1519 1512 1508 1503 1503 1503 1503 1502 1501 1499 1497 1495 1493 1490 1487 1485 1483 1481 1479 1478 1477 1476 1474 1473 1472 1471 1470 1469 1468
1540 1539 1538 1537 1536 1534 1533 1531 1530 1527 1525 1523 1522 1520 1518 1514 1508 1499 1496 1497 1496 1494 1493 1491 1489 1487 1484 1482 1479 1476 1474 1472 1470 1469 1468 1467 1466 1465 1464 1462 1461 1460 1460
1538 1537 1536 1535 1533 1532 1530 1528 1526 1524 1522 1519 1517 1515 1512 1509 1506 1500 1490 1486 1485 1484 1483 1482 1480 1478 1475 1473 1470 1467 1465 1463 1461 1459 1458 1457 1456 1455 1454 1453 1452 1451 1450
1535 1534 1533 1532 1530 1529 1526 1524 1522 1520 1517 1515 1512 1509 1507 1503 1499 1495 1487 1480 1475 1474 1473 1472 1470 1468 1466 1463 1461 1458 1456 1454 1452 1450 1448 1446 1445 1445 1444 1443 1442 1442 1441
1533 1532 1530 1529 1527 1525 1522 1520 1517 1515 1512 1509 1506 1504 1501 1497 1494 1490 1483 1474 1467 1463 1462 1461 1461 1459 1457 1454 1451 1449 1446 1444 1442 1440 1438 1436 1435 1434 1433 1433 1432 1432 1431
1530 1529 1527 1525 1523 1520 1518 1515 1512 1509 1506 1503 1500 1497 1493 1490 1487 1483 1478 1471 1460 1452 1452 1451 1450 1450 1448 1445 1442 1439 1436 1434 1431 1429 1427 1426 1424 1423 1422 1422 1422 1421 1421
1527 1525 1523 1521 1518 1516 1513 1509 1506 1503 1500 1496 1493 1489 1486 1482 1479 1476 1472 1468 1461 1447 1438 1440 1440 1438 1437 1434 1431 1428 1425 1423 1421 1419 1417 1415 1414 1413 1412 1411 1411 1411 1410
1523 1521 1519 1516 1513 1510 1507 1503 1500 1496 1492 1489 1485 1481 1478 1474 1471 1468 1464 1461 1456 1448 1434 1428 1429 1428 1427 1424 1422 1419 1416 1414 1411 1409 1406 1405 1403 1402 1401 1401 1400 1400 1400
1519 1517 1514 1511 1508 1504 1501 1497 1493 1489 1485 1481 1478 1474 1470 1467 1463 1459 1455 1451 1447 1442 1431 1420 1420 1419 1417 1414 1412 1410 1407 1403 1401 1398 1396 1395 1393 1392 1391 1390 1390 1390 1390
1515 1512 1509 1505 1502 1498 1494 1490 1486 1482 1478 1474 1470 1466 1462 1458 1454 1451 1446 1442 1438 1434 1427 1416 1410 1410 1408 1406 1403 1400 1398 1395 1392 1390 1388 1386 1384 1383 1381 1381 1380 1380 1379
1510 1507 1503 1500 1496 1492 1488 1483 1479 1474 1470 1466 1462 1458 1454 1450 1445 1441 1437 1433 1429 1425 1420 1413 1404 1402 1400 1398 1395 1392 1390 1387 1384 1382 1379 1377 1375 1373 1372 1371 1371 1370 1370
1505 1501 1497 1494 1489 1485 1481 1476 1471 1467 1462 1458 1455 1451 1446 1442 1437 1433 1428 1424 1420 1416 1412 1406 1400 1395 1392 1390 1388 1384 1381 1378 1376 1374 1371 1369 1367 1365 1364 1362 1361 1361 1360
1499 1495 1491 1487 1483 1478 1473 1468 1463 1459 1454 1450 1446 1442 1438 1434 1429 1426 1422 1417 1413 1409 1404 1399 1393 1389 1385 1383 1381 1378 1374 1370 1367 1365 1362 1360 1359 1357 1355 1354 1353 1351 1351
1492 1489 1484 1480 1475 1471 1466 1462 1457 1451 1447 1442 1437 1433 1429 1425 1421 1417 1413 1410 1406 1402 1396 1392 1386 1382 1378 1376 1373 1370 1367 1363 1359 1358 1355 1352 1351 1348 1347 1346 1345 1344 1343
1485 1481 1477 1473 1468 1463 1459 1454 1449 1444 1439 1434 1429 1424 1420 1416 1412 1407 1402 1398 1395 1393 1389 1385 1379 1374 1371 1368 1365 1362 1359 1355 1352 1350 1349 1344 1343 1340 1339 1338 1337 1336 1336
1478 1473 1469 1464 1459 1455 1451 1446 1440 1435 1429 1425 1421 1416 1411 1406 1402 1398 1393 1388 1384 1381 1379 1375 1370 1365 1362 1359 1357 1353 1350 1346 1343 1342 1341 1337 1334 1333 1332 1331 1330 1329 1328
1470 1465 1461 1456 1451 1446 1442 1437 1431 1425 1420 1415 1411 1407 1403 1398 1394 1390 1386 1380 1375 1371 1369 1365 1362 1358 1354 1352 1349 1345 1342 1339 1335 1333 1333 1331 1328 1326 1325 1323 1323 1323 1322
1462 1457 1452 1448 1443 1437 1433 1428 1423 1417 1411 1406 1402 1398 1395 1390 1386 1382 1377 1372 1366 1361 1358 1354 1351 1347 1345 1342 1340 1338 1335 1332 1328 1326 1324 1324 1322 1321 1318 1317 1318 1318 1317